822  
ASUS41 KAKQ 271314  
RWRAKQ  
 
REGIONAL WEATHER ROUNDUP  
NATIONAL WEATHER SERVICE WAKEFIELD VA  
800 AM EST WED JAN 27 2021  
 
NOTE: "FAIR" INDICATES FEW OR NO CLOUDS BELOW 12,000 FEET WITH NO  
SIGNIFICANT WEATHER AND/OR S TO VISIBILITY
. * = DENOTES  
STATION MAY NOT REPORT PRECIPITATION (E.G., RAIN,SNOW,ETC.),
 
THUNDER OR FOG.  
 
VAZ042-051-052>054-056-271400-  
NORTHERN VIRGINIA  
 
CITY SKY/WX TMP DP RH WIND PRES REMARKS
 
WASH NATIONAL CLOUDY 41 34 76 N10 30.09  
DULLES MOCLDY 40 32 73 NW7 30.08  
FORT BELVOIR NOT AVBL  
QUANTICO FOG 38 35 89 W3 30.09R VSB 1/4  
FREDERICKSBRG* FOG N/A N/A N/A CALM 30.07R VSB<1/4  
STAFFORD* FOG 36 35 98 CALM 30.10S VSB<1/4  
WARRENTON CLOUDY 35 33 91 SW3 30.06R FOG  
CULPEPER* FOG 36 35 95 CALM 30.07R VSB<1/4  
MANASSAS* CLOUDY 40 38 93 N13 30.07R  
LEESBURG* CLOUDY 36 30 80 N12 30.09R  
WINCHESTER CLOUDY 37 28 70 NW15G21 30.06R  
FRONT ROYAL* CLOUDY 39 30 70 N7 30.06R  
LURAY* CLOUDY 41 32 70 NW5 30.05R  

 
 
VAZ048-049-060>072-079>083-271400-  
CENTRAL AND SOUTH CENTRAL VIRGINIA  
 
CITY SKY/WX TMP DP RH WIND PRES REMARKS
 
RICHMOND CLOUDY 41 39 93 N12 30.05R FOG  
CHESTERFIELD* CLOUDY 39 39 100 CALM 30.07R FOG  
PETERSBURG* FOG 40 38 95 CALM 30.06R VSB 3/4  
HANOVER CLOUDY 40 38 93 NE7 30.08R FOG  
TAPPAHANNOCK* CLOUDY 38 38 100 N5 30.07R  
QUINTON* CLOUDY 40 40 100 N5 30.05R  
CHARLOTTSVILLE FOG 33 32 96 CALM 30.04 VSB 1/4  
GORDONSVILLE* FOG 36 36 100 NE3 30.06R VSB 1/4  
ORANGE* FOG 36 36 100 CALM 30.07R VSB 1/2  
LOUISA* FOG 36 N/A N/A NE8 30.10R VSB 1/4  
BUMPASS* CLOUDY 38 37 95 NW5 30.06R VSB 3/4  
FARMVILLE* PTCLDY 34 34 99 CALM 30.05R  
CREWE* FAIR 36 33 91 CALM 30.04R  
FORT PICKETT* CLOUDY 38 38 100 CALM 30.05R FOG  
CHASE CITY* FAIR 39 39 100 CALM 30.05R  
CLARKSVILLE* FAIR 39 39 100 N5 30.04R  
SOUTH HILL* MOCLDY 39 38 93 CALM 30.11R  
LAWRENCEVILLE* CLOUDY 40 39 97 CALM 30.06R VSB 1/4  
EMPORIA* CLOUDY 41 41 100 CALM 30.07R FOG  

 
 
VAZ088>098-271400-  
SOUTHEAST VIRGINIA  
 
CITY SKY/WX TMP DP RH WIND PRES REMARKS
 
NORFOLK FOG 43 41 93 N7 30.06R VSB 1/2  
VIRGINIA BEACH NOT AVBL  
NORFOLK NAVAL NOT AVBL  
WEST POINT* CLOUDY 40 39 96 N3 30.06R  
SALUDA* CLOUDY 38 38 99 N8 30.07R  
NEWPORT NEWS CLOUDY 40 40 100 NE8 30.07R FOG  
LANGLEY AFB NOT AVBL  
FORT EUSTIS NOT AVBL  
WILLIAMSBURG* CLOUDY 43 43 100 CALM 30.07R  
HR EXEC AP* CLOUDY 43 43 100 VRB3 30.06R FOG  
FRANKLIN* CLOUDY 43 43 99 CALM 30.06R FOG  
US460-WAKEFLD FOG 43 43 100 CALM 30.06R VSB 1/2  

 
 
VAZ020-022-025-037-045-271400-  
WEST CENTRAL AND SOUTHWEST VIRGINIA  
 
CITY SKY/WX TMP DP RH WIND PRES REMARKS
 
STAUNTON* CLEAR 37 28 69 NW13 30.05R  
WAYNESBORO* FAIR 36 30 78 NW3 30.03R  
HOT SPRINGS VA CLOUDY 31 28 88 W20G25 29.99R WCI 18  
LYNCHBURG PTCLDY 42 35 76 VRB5 30.05R  
DANVILLE N/A N/A N/A N/A MISG 30.05  
SOUTH BOSTON* FAIR 40 38 95 MISG 30.06R  
MARTINSVILLE MOCLDY 44 41 91 CALM 30.06S  
ROANOKE PTCLDY 45 32 60 NW18G30 30.07R  
BLACKSBURG PTCLDY 39 33 78 NW8G17 30.07F  
DUBLIN* PTCLDY 39 33 78 NW12 30.07S  
MARION* PTCLDY 39 36 91 CALM 30.07F  
HILLSVILLE* MOCLDY 40 35 84 NW14 30.02F  
RICHLANDS* CLOUDY 36 33 87 NW3 30.06F  
WISE* CLOUDY 36 34 93 N7 30.05F  
ABINGDON* MOCLDY 40 33 76 CALM 30.05F  

 
 
MDZ021>025-VAZ099-100-271400-  
SOUTHERN MARYLAND AND THE DELMARVA PENINSULA  
 
CITY SKY/WX TMP DP RH WIND PRES REMARKS
 
PATUXENT RIVER MOCLDY 37 36 96 W8 30.07R FOG  
BAY BRIDGE APT CLOUDY 39 37 93 NW12 30.06R  
LEONARDTOWN CLOUDY 36 36 100 CALM 30.08R  
DOVER NOT AVBL  
GEORGETOWN CLOUDY 38 35 89 W6 30.03R FOG  
EASTON MOCLDY 37 37 100 NW5 30.08 FOG  
CAMBRIDGE CLOUDY 37 37 100 W5 30.06R FOG  
SALISBURY CLOUDY 38 36 92 NW7 30.05R FOG  
TANGIER NOT AVBL  
OCEAN CITY CLOUDY 38 37 97 NW6 30.04R FOG  
WALLOPS ISLAND MOCLDY 38 38 100 NW8 30.05R FOG  
ACCOMACK* NOT AVBL  

 
 
NCZ012>017-030>032-271400-  
NORTH CENTRAL AND EASTERN NORTH CAROLINA  
 
CITY SKY/WX TMP DP RH WIND PRES REMARKS
 
ROANOKE RAPIDS CLOUDY 41 41 100 CALM 30.06R FOG  
RALEIGH CLOUDY 45 44 97 S6 30.06R FOG  
ELIZABETH CITY CLOUDY 45 43 93 N5 30.05R FOG  
AHOSKIE* CLOUDY 43 43 100 CALM 30.06R FOG  
EDENTON* CLOUDY 47 47 100 CALM 30.06R FOG  
CURRITUCK* CLOUDY 43 43 100 NE3 30.05R FOG  
KILL DEVIL HLS CLOUDY 43 43 100 N5 30.01F  
MANTEO CLOUDY 44 43 97 CALM 30.05R  
CAPE HATTERAS CLOUDY 46 45 96 VRB7 30.05R FOG  
TARBORO* CLOUDY 45 45 100 CALM 30.07R FOG  
GOLDSBORO NOT AVBL  
WASHINGTON CLOUDY 48 46 93 CALM 30.08R FOG  
GREENVILLE CLOUDY 46 46 100 CALM 30.09R FOG  
NEW BERN LGT RAIN 51 51 100 NW5 30.08R FOG  
WILMINGTON LGT RAIN 57 55 93 N6 30.00R  

 
 
VAZ048-271400-  
ELSEWHERE  
 
CITY SKY/WX TMP DP RH WIND PRES REMARKS
 
HARRISBURG PA CLOUDY 37 29 72 NW8 30.05R  
BALTIMORE MOCLDY 38 34 85 NW7 30.06R  
ANNAPOLIS NOT AVBL  
ANDREWS AFB NOT AVBL  
PHILADELPHIA PTCLDY 37 33 85 W12 30.03R  
HENDERSON NC MOCLDY 41 40 95 CALM 30.04R  
GREENSBORO CLOUDY 48 39 71 N6 30.01S  
ROCKY MOUNT CLOUDY 46 45 96 S5 30.08R FOG  

 
 
VAZ100-271400-  
MARINE  
 
STATION/POSITION TIME TEMP WIND PRES WAVE SWELL
 
AIR SEA DIR/SP/G HT/PER HT/PER  
(UTC) (F) (DEG/KT/KT) (MB) (FT/S) (FT/S)  
CAPE MAY NJ 1230 39 41 290/ 15/ 19 1016.0R  
LEWES DE 1230 38 40 310/ 12/ 14 1016.6R  
OCEAN-CITY-INLET 1230 38 42 310/ 6/ 9 1017.4R  
44089 WALLOPS IS 1226 44 N/A 3/ 7  
WACHAPREAGUE VA 1230 38 41 340/ 4/ 11 1017.1R  
GOOSES REEF MD 1242 39 40 270/ 10/ 12 997.5  
COVE POINT MD 1142 37 260/ 3/ 5 1017.5  
SOLOMONS ISLAND 1230 38 41 290/ 4/ 6 1017.7R  
BISHOPS HEAD MD 1230 38 39 280/ 9/ 11 1017.6R  
PINEY POINT MD 1230 330/ 8/ 10 N/A  
POTOMAC MD 1254 38 41 320/ 10/ 10 1018.7R  
CAMBRIDGE MD 1230 37 38 240/ 4/ 7 1017.3R  
LEWISETTA VA 1230 38 38 340/ 5/ 6 1017.9R  
RAPPAHANNOCK LGT 1230 330/ 8/ 10 1018.2R  
YORK RVR RNG VA 1230 40 360/ 4/ 5 N/A  
YORKTOWN VA 1230 40 43 40/ 6/ 7 1017.5R  
DOMINION TERM VA 1230 43 40/ 1/ 3 1017.5R  
KIPTOPEKE VA 1230 44 80/ 2/ 3 N/A  
CHES BAY BRIDGE 1230 41 50/ 3/ 5 1016.4R  
CAPE HENRY VA 1230 41 350/ 3/ 4 1017.6R  
S CRANEY ISL VA 1230 43 340/ 3/ 3 1016.9R  
CAPE HENRY BUOY 1226 47 N/A 2/ 8  
DUCK PIER NC 1230 43 360/ 8/ 8 1016.5R  
44056 DUCK FRF 1226 45 N/A 2/ 7  
OREGON INLET NC 1230 44 48 340/ 7/ 11 1016.6R  
HATTERAS NC 1230 45 57 10/ 11/ 12 1015.9R  

 
 
 
CLICK HERE TO GO TO PREVIOUS BULLETINS.

The Nexlab VA Page
The Nexlab NC Page
The Nexlab MD Page Main Text Page